Sidney, MT

2:44 PM MST on February 23, 2017 (GMT -0700)
Sidney-Richland Municipal

Weather History for KSDY - February, 2013

Change the Weather History Date:

Tuesday, February 19, 2013

  Actual Average Record
Temperature  
Mean Temperature 9 °F -  
Max Temperature 12 °F 34 °F 56 °F (1981)
Min Temperature 6 °F 12 °F -24 °F (1959)
Degree Days  
Heating Degree Days 56    
Moisture  
Dew Point -2 °F    
Average Humidity 62    
Maximum Humidity 72    
Minimum Humidity 52    
Precipitation  
Precipitation 0.00 in - - ()
Sea Level Pressure  
Sea Level Pressure 30.16 in    
Wind  
Wind Speed 15 mph (ESE)    
Max Wind Speed 17 mph    
Max Gust Speed 21 mph    
Visibility 10 miles    
Events      
Averages and records for this station are not official NWS values.
T = Trace of Precipitation, MM = Missing Value Source: NWS Daily Summary

Daily Weather History Graph

Daily Weather History Graph

Search for Another Location

Airport or City:

Trip Planner

Search our weather history database for the weather conditions in past years. The results will help you decide how hot, cold, wet, or windy it might be!

Date:

Astronomy

Feb. 19, 2013 Rise Set
Actual Time 6:55 AM MST 5:26 PM MST
Civil Twilight 6:23 AM MST 5:58 PM MST
Nautical Twilight 5:47 AM MST 6:34 PM MST
Astronomical Twilight 5:12 AM MST 7:09 PM MST
Moon 11:46 AM MST (2/19) 2:42 AM MST (2/19)
Length of Visible Light 11h 34m
Length of Day
10h 31m
Waxing Gibbous, 68% of the Moon is Illuminated
Feb 19
Waxing Gibbous
Feb 25
Full
Mar 4
Last Quarter
Mar 11
New
Mar 19
First Quarter

Hourly Weather History & Observations

Time (MST) Temp. Windchill Dew Point Humidity Pressure Visibility Wind Dir Wind Speed Gust Speed Precip Events Conditions
11:35 AM 8.6 °F -9.5 °F -5.8 °F 52% 30.25 in 10.0 mi ESE 17.3 mph - N/A   Clear
11:55 AM 8.6 °F -7.0 °F -5.8 °F 52% 30.24 in 10.0 mi ESE 12.7 mph - N/A   Clear
12:15 PM 8.6 °F -9.5 °F -5.8 °F 52% 30.23 in 10.0 mi ESE 17.3 mph 20.7 mph N/A   Clear
12:35 PM 10.4 °F -5.4 °F -4.0 °F 52% 30.23 in 10.0 mi ESE 13.8 mph 19.6 mph N/A   Clear
12:55 PM 10.4 °F -6.0 °F -4.0 °F 52% 30.23 in 10.0 mi SE 15.0 mph - N/A   Clear
1:15 PM 10.4 °F -6.0 °F -2.2 °F 57% 30.21 in 10.0 mi East 15.0 mph 20.7 mph N/A   Clear
1:35 PM 10.4 °F -7.2 °F -2.2 °F 57% 30.20 in 10.0 mi ESE 17.3 mph - N/A   Clear
1:55 PM 10.4 °F -6.0 °F -0.4 °F 62% 30.19 in 10.0 mi East 15.0 mph 20.7 mph N/A   Clear
2:15 PM 12.2 °F -3.1 °F -0.4 °F 57% 30.19 in 10.0 mi East 13.8 mph - N/A   Clear
2:35 PM 12.2 °F -2.5 °F -0.4 °F 57% 30.19 in 10.0 mi ESE 12.7 mph - N/A   Clear
2:55 PM 12.2 °F -3.7 °F 1.4 °F 62% 30.18 in 10.0 mi ESE 15.0 mph - N/A   Clear
3:35 PM 12.2 °F -3.7 °F -0.4 °F 57% 30.17 in 10.0 mi ESE 15.0 mph - N/A   Clear
4:15 PM 10.4 °F -6.6 °F -2.2 °F 57% 30.16 in 10.0 mi East 16.1 mph - N/A   Clear
5:35 PM 10.4 °F -4.8 °F -2.2 °F 57% 30.15 in 10.0 mi East 12.7 mph - N/A   Clear
6:15 PM 8.6 °F -7.7 °F -0.4 °F 67% 30.15 in 10.0 mi ESE 13.8 mph - N/A   Clear
6:35 PM 8.6 °F -8.3 °F -0.4 °F 67% 30.16 in 10.0 mi ESE 15.0 mph - N/A   Clear
6:55 PM 8.6 °F -9.5 °F -2.2 °F 62% 30.16 in 10.0 mi ESE 17.3 mph - N/A   Clear
7:15 PM 8.6 °F -4.7 °F -2.2 °F 62% 30.16 in 10.0 mi ESE 9.2 mph - N/A   Clear
7:35 PM 8.6 °F -5.5 °F -2.2 °F 62% 30.15 in 10.0 mi ESE 10.4 mph - N/A   Clear
8:35 PM 8.6 °F -7.0 °F -0.4 °F 67% 30.13 in 10.0 mi ESE 12.7 mph - N/A   Clear
8:55 PM 8.6 °F -6.3 °F -0.4 °F 67% 30.14 in 10.0 mi ESE 11.5 mph - N/A   Clear
9:15 PM 6.8 °F -10.0 °F -0.4 °F 72% 30.13 in 10.0 mi ESE 13.8 mph - N/A   Clear
9:35 PM 6.8 °F -8.6 °F -0.4 °F 72% 30.13 in 10.0 mi ESE 11.5 mph - N/A   Clear
9:55 PM 6.8 °F -10.7 °F -0.4 °F 72% 30.11 in 10.0 mi ESE 15.0 mph - N/A   Clear
10:15 PM 6.8 °F -8.6 °F -0.4 °F 72% 30.12 in 10.0 mi ESE 11.5 mph - N/A   Clear
10:35 PM 6.8 °F -9.3 °F -2.2 °F 67% 30.12 in 10.0 mi ESE 12.7 mph - N/A   Clear
10:55 PM 6.8 °F -10.0 °F -0.4 °F 72% 30.11 in 10.0 mi ESE 13.8 mph - N/A   Clear
11:15 PM 6.8 °F -8.6 °F -0.4 °F 72% 30.11 in 10.0 mi ESE 11.5 mph - N/A   Clear
11:35 PM 6.8 °F -9.3 °F -0.4 °F 72% 30.10 in 10.0 mi ESE 12.7 mph - N/A   Partly Cloudy
11:55 PM 6.8 °F -10.0 °F -2.2 °F 67% 30.10 in 10.0 mi SE 13.8 mph - N/A   Partly Cloudy